Weather in White River

South Africa     25°19′34″S   31°01′19″E
temp.,
°C
wind,
m/s
gust,
m/s
humid.,
%
clouds,
%
prec.,
mm/h
press.,
hPa
HPBL,
m
28 june, tue
tue2823:00+11s1187100 0.2 103650
02:00+9sw11977 0.6 103612
05:00+10sw139552 0.2 1036158
08:00+11ssw149218 0.7 1036213
11:00+14se247392 0.6 10351045
14:00+14ese357661 1.3 1033803
17:00+13se258159 0.3 1033219
20:00+10se119469 0.8 103418
29 june, wed
wed2923:00+9nw11967 0.6 103410
02:00+9w119491 0.6 103422
05:00+8w11943 0.0 103318
08:00+10w11870 0.0 103360
11:00+16ene11541 0.0 10321217
14:00+17ene22450 0.0 10281399
17:00+12ne11660 0.0 102814
20:00+9nw21790 0.0 103019
30 june, thu
thu3023:00+8wnw11830 0.0 103114
02:00+7w21850 0.0 103021
05:00+7w21870 0.0 103027
08:00+9wsw12720 0.0 103085
11:00+17sse11380 0.0 1029927
14:00+18ese22320 0.0 10261304
17:00+13ene11560 0.0 102711
20:00+9wnw21690 0.0 103016
1 july, fri
fri123:00+8wnw11730 0.0 103016
02:00+7w21750 0.0 103018
05:00+7w21750 0.0 103019
08:00+10wsw12620 0.0 103071
11:00+18ese11340 0.0 1029856
14:00+19e22320 0.0 10251253
17:00+13ne22570 0.0 102643
20:00+9nw11710 0.0 102816
2 july, sat
sat223:00+9wnw11760 0.0 102914
02:00+8w21780 0.0 102818
05:00+7w21770 0.0 102816
08:00+10w11630 0.0 102866
11:00+18e11380 0.0 1025806
14:00+20ne33340 0.0 10221236
17:00+14nne23560 0.0 102258
20:00+11wnw21670 0.0 102515